Back to catalog

SL-12 R/B(2)

AliveMEO
NORAD 28918·ROCKET BODY·🇷🇺 Russia

Launched Dec 25, 2005 from Baikonur Cosmodrome

Loading…

Next Passes (next 24 hours)

TLE

FreshSource: Space-Track

Epoch: Sep 13, 2026, 09:34 UTC

1 28918U 05050D   26256.39921172 -.00000050  00000-0  00000-0 0  9999
2 28918  65.4938 312.1130 0011279 208.0060 149.5541  2.13506561161558

Track SL-12 R/B(2) in real time with AllMySat

Download on the App Store